HCJTC SEQM-SEQM

Flight info

Callsign HCJTC
Flight time 0h 27m
Altitude 10500
Route TABACUNDO ANDES AEROCLUB QUITO
Aircraft S22T/L-SDGRY/S

Departure

Time 2026-04-29 20:41
Airport Mariscal Sucre International Airport (SEQM)

Arrival

Time 2026-04-29 21:08
Airport Mariscal Sucre International Airport (SEQM)
Time Latitude Longitude Altitude Speed Heading
2026-04-29 20:23 -0.13709 -78.35717 7979 ft 0 kts 268°
2026-04-29 20:36 -0.13715 -78.35713 7985 ft 7 kts 83°
2026-04-29 20:37 -0.13654 -78.35683 7985 ft 11 kts 66°
2026-04-29 20:37 -0.13609 -78.35631 7979 ft 14 kts 355°
2026-04-29 20:37 -0.13575 -78.35609 7979 ft 2 kts 76°
2026-04-29 20:37 -0.13575 -78.35606 7979 ft 0 kts 85°
2026-04-29 20:38 -0.13575 -78.35605 7979 ft 1 kts 85°
2026-04-29 20:38 -0.13594 -78.35554 7980 ft 15 kts 110°
2026-04-29 20:38 -0.13544 -78.35469 7980 ft 11 kts 27°
2026-04-29 20:39 -0.13468 -78.35433 7986 ft 13 kts 25°
2026-04-29 20:39 -0.13392 -78.35399 7987 ft 11 kts 359°
2026-04-29 20:39 -0.13384 -78.35399 7983 ft 0 kts 359°
2026-04-29 20:40 -0.13180 -78.35407 7984 ft 62 kts 358°
2026-04-29 20:41 -0.12586 -78.35437 8061 ft 100 kts 358°
2026-04-29 20:41 -0.11909 -78.35473 8473 ft 95 kts 356°
2026-04-29 20:41 -0.11251 -78.35492 8861 ft 95 kts 357°
2026-04-29 20:41 -0.10580 -78.35511 9155 ft 107 kts 359°
2026-04-29 20:42 -0.09740 -78.35511 9318 ft 131 kts
2026-04-29 20:42 -0.08876 -78.35203 9701 ft 134 kts 27°
2026-04-29 20:42 -0.07969 -78.34787 9849 ft 151 kts 23°
2026-04-29 20:42 -0.07043 -78.34355 10348 ft 142 kts 26°
2026-04-29 20:43 -0.06123 -78.33882 10537 ft 157 kts 28°
2026-04-29 20:43 -0.05099 -78.33324 10485 ft 174 kts 31°
2026-04-29 20:43 -0.04042 -78.32672 10423 ft 182 kts 30°
2026-04-29 20:43 -0.02992 -78.31964 10478 ft 180 kts 42°
2026-04-29 20:44 -0.02178 -78.31034 10564 ft 178 kts 56°
2026-04-29 20:44 -0.01561 -78.29952 10518 ft 183 kts 69°
2026-04-29 20:44 -0.01200 -78.28718 10524 ft 183 kts 76°
2026-04-29 20:44 -0.00945 -78.27513 10588 ft 181 kts 76°
2026-04-29 20:45 -0.00643 -78.26256 10528 ft 185 kts 73°
2026-04-29 20:45 -0.00325 -78.25018 10454 ft 182 kts 74°
2026-04-29 20:45 0.00005 -78.23822 10334 ft 174 kts 72°
2026-04-29 20:45 0.00328 -78.22683 10268 ft 167 kts 73°
2026-04-29 20:46 0.00815 -78.21784 10332 ft 140 kts 28°
2026-04-29 20:46 0.01782 -78.21759 10116 ft 132 kts 347°
2026-04-29 20:46 0.02606 -78.21970 10092 ft 114 kts 345°
2026-04-29 20:46 0.03355 -78.22131 10015 ft 107 kts 351°
2026-04-29 20:47 0.04083 -78.22205 10013 ft 106 kts 355°
2026-04-29 20:47 0.04833 -78.22250 9978 ft 105 kts 358°
2026-04-29 20:47 0.05544 -78.22268 9820 ft 99 kts 357°
2026-04-29 20:47 0.06178 -78.22291 9800 ft 74 kts 359°
2026-04-29 20:48 0.06445 -78.22301 9873 ft 11 kts
2026-04-29 20:48 0.06449 -78.22305 9873 ft 2 kts 143°
2026-04-29 20:48 0.06446 -78.22304 9873 ft 0 kts 176°
2026-04-29 20:57 0.06419 -78.22301 9869 ft 24 kts 176°
2026-04-29 20:57 0.05965 -78.22279 9758 ft 99 kts 176°
2026-04-29 20:58 0.05257 -78.22288 10065 ft 104 kts 181°
2026-04-29 20:58 0.04526 -78.22318 10364 ft 111 kts 182°
2026-04-29 20:58 0.03625 -78.22522 10352 ft 147 kts 201°
2026-04-29 20:58 0.02655 -78.23015 10450 ft 165 kts 208°
2026-04-29 20:59 0.01649 -78.23643 10475 ft 181 kts 214°
2026-04-29 20:59 0.00690 -78.24532 10341 ft 193 kts 234°
2026-04-29 20:59 0.00184 -78.25762 10317 ft 193 kts 255°
2026-04-29 20:59 -0.00142 -78.27058 10324 ft 192 kts 258°
2026-04-29 21:00 -0.00411 -78.28347 10417 ft 187 kts 257°
2026-04-29 21:00 -0.00667 -78.29612 10445 ft 187 kts 257°
2026-04-29 21:00 -0.00958 -78.30866 10498 ft 186 kts 255°
2026-04-29 21:00 -0.01335 -78.32100 10526 ft 185 kts 249°
2026-04-29 21:01 -0.01955 -78.33216 10612 ft 185 kts 235°
2026-04-29 21:01 -0.02684 -78.34281 10638 ft 187 kts 234°
2026-04-29 21:01 -0.03435 -78.35366 10529 ft 193 kts 234°
2026-04-29 21:01 -0.04217 -78.36446 10543 ft 192 kts 231°
2026-04-29 21:02 -0.05044 -78.37511 10455 ft 195 kts 230°
2026-04-29 21:02 -0.05927 -78.38517 10438 ft 194 kts 223°
2026-04-29 21:02 -0.06923 -78.39420 10468 ft 192 kts 223°
2026-04-29 21:02 -0.07866 -78.40347 10544 ft 190 kts 224°
2026-04-29 21:03 -0.08911 -78.41183 10354 ft 201 kts 203°
2026-04-29 21:03 -0.10344 -78.41276 10166 ft 207 kts 176°
2026-04-29 21:03 -0.11759 -78.41163 10186 ft 204 kts 168°
2026-04-29 21:03 -0.12952 -78.40929 10094 ft 207 kts 168°
2026-04-29 21:04 -0.14372 -78.40749 9941 ft 205 kts 177°
2026-04-29 21:04 -0.15802 -78.40701 9746 ft 204 kts 177°
2026-04-29 21:04 -0.17195 -78.40641 9594 ft 199 kts 176°
2026-04-29 21:04 -0.18557 -78.40574 9495 ft 193 kts 177°
2026-04-29 21:05 -0.19869 -78.40420 9399 ft 187 kts 159°
2026-04-29 21:05 -0.20833 -78.39649 9400 ft 173 kts 120°
2026-04-29 21:05 -0.21006 -78.38538 9433 ft 159 kts 83°
2026-04-29 21:05 -0.20781 -78.37503 9422 ft 143 kts 71°
2026-04-29 21:06 -0.20347 -78.36654 9398 ft 130 kts 55°
2026-04-29 21:06 -0.19823 -78.35934 9329 ft 128 kts 50°
2026-04-29 21:06 -0.19172 -78.35365 9162 ft 126 kts 22°
2026-04-29 21:06 -0.18292 -78.35255 8926 ft 125 kts
2026-04-29 21:07 -0.17445 -78.35236 8737 ft 121 kts
2026-04-29 21:07 -0.16607 -78.35257 8493 ft 121 kts 357°
2026-04-29 21:07 -0.15808 -78.35297 8359 ft 113 kts 358°
2026-04-29 21:07 -0.15012 -78.35333 8156 ft 114 kts 358°
2026-04-29 21:08 -0.14267 -78.35364 8010 ft 97 kts 359°
2026-04-29 21:08 -0.13686 -78.35385 7979 ft 70 kts 358°
2026-04-29 21:08 -0.13377 -78.35390 7983 ft 14 kts
2026-04-29 21:08 -0.13435 -78.35423 7982 ft 20 kts 197°
2026-04-29 21:09 -0.13539 -78.35468 7980 ft 13 kts 208°
2026-04-29 21:09 -0.13585 -78.35494 7980 ft 0 kts 216°
2026-04-29 21:09 -0.13589 -78.35497 7980 ft 3 kts 213°
2026-04-29 21:09 -0.13604 -78.35527 7980 ft 6 kts 274°
2026-04-29 21:10 -0.13580 -78.35578 7979 ft 10 kts 301°
2026-04-29 21:10 -0.13622 -78.35626 7979 ft 12 kts 176°
2026-04-29 21:10 -0.13660 -78.35689 7979 ft 11 kts 209°
2026-04-29 21:10 -0.13708 -78.35700 7979 ft 6 kts 269°
2026-04-29 21:11 -0.13709 -78.35716 7979 ft 0 kts 269°